When you browse on this site, cookies collect data to enhance your experience and personalize the content and advertising you see.
Visit our Privacy Policy to learn more. By continuing to use the site, you agree to this use of cookies and data.
  • In Latvia
  • List of Countries
  • For 7 days
  • Water Temperature
  • Satellite Maps
  • Weather Map
  • Weather Widgets
  • user-avatar
    Login

    Hourly Weather Sherobod

    Today, 10 December, Monday

    Time Temperature Precipitation Wind Pressure Humidity
    00:00 +9°C° 0.1 mm 2 mps 727 mmHg 78%
    01:00 +9°C° 0.1 mm 2 mps 727 mmHg 80%
    02:00 +8°C° 0.1 mm 2 mps 727 mmHg 81%
    03:00 +8°C° 0.1 mm 2 mps 727 mmHg 82%
    04:00 +9°C° 0.1 mm 1 mps 727 mmHg 83%
    05:00 +9°C° 0.1 mm 1 mps 728 mmHg 84%
    06:00 +9°C° 0.1 mm 1 mps 728 mmHg 84%
    07:00 +8°C° 0.1 mm 1 mps 728 mmHg 84%
    08:00 +9°C° 0.1 mm 1 mps 728 mmHg 79%
    09:00 +10°C° 0.1 mm 1 mps 729 mmHg 74%
    10:00 +11°C° 0.1 mm 1 mps 729 mmHg 69%
    11:00 +11°C° 0.1 mm 1 mps 729 mmHg 67%
    12:00 +12°C° 0.1 mm 1 mps 728 mmHg 64%
    13:00 +12°C° 0.1 mm 1 mps 728 mmHg 61%
    14:00 +12°C° 0 mm 1 mps 728 mmHg 62%
    15:00 +12°C° 0 mm 1 mps 728 mmHg 62%
    16:00 +12°C° 0 mm 1 mps 729 mmHg 62%
    17:00 +11°C° 0 mm 1 mps 729 mmHg 64%
    18:00 +11°C° 0 mm 1 mps 729 mmHg 65%
    19:00 +9°C° 0 mm 2 mps 729 mmHg 67%
    20:00 +9°C° 0 mm 2 mps 729 mmHg 66%
    21:00 +9°C° 0 mm 2 mps 729 mmHg 66%
    22:00 +9°C° 0 mm 3 mps 729 mmHg 65%
    23:00 +8°C° 0 mm 3 mps 729 mmHg 64%

    Tomorrow, 11 December, Tuesday

    Time Temperature Precipitation Wind Pressure Humidity
    00:00 +8°C° 0 mm 3 mps 729 mmHg 63%
    01:00 +8°C° 0 mm 3 mps 728 mmHg 62%
    02:00 +8°C° 0 mm 3 mps 728 mmHg 61%
    03:00 +8°C° 0 mm 3 mps 728 mmHg 60%
    04:00 +7°C° 0 mm 3 mps 728 mmHg 59%
    05:00 +7°C° 0 mm 3 mps 728 mmHg 58%
    06:00 +7°C° 0 mm 3 mps 728 mmHg 58%
    07:00 +7°C° 0 mm 2 mps 728 mmHg 57%
    08:00 +9°C° 0 mm 3 mps 728 mmHg 54%
    09:00 +10°C° 0 mm 3 mps 729 mmHg 51%
    10:00 +12°C° 0 mm 3 mps 729 mmHg 47%
    11:00 +12°C° 0 mm 3 mps 729 mmHg 46%
    12:00 +13°C° 0 mm 3 mps 728 mmHg 44%
    13:00 +13°C° 0 mm 3 mps 728 mmHg 43%
    14:00 +14°C° 0 mm 2 mps 728 mmHg 45%
    15:00 +13°C° 0 mm 2 mps 728 mmHg 46%
    16:00 +13°C° 0 mm 1 mps 728 mmHg 48%
    17:00 +12°C° 0 mm 2 mps 728 mmHg 49%
    18:00 +12°C° 0 mm 2 mps 728 mmHg 50%
    19:00 +10°C° 0 mm 2 mps 728 mmHg 51%
    20:00 +10°C° 0 mm 2 mps 728 mmHg 50%
    21:00 +9°C° 0 mm 2 mps 728 mmHg 49%
    22:00 +9°C° 0 mm 3 mps 728 mmHg 49%
    23:00 +9°C° 0 mm 3 mps 728 mmHg 48%

    Day after tomorrow, 12 December, Wednesday

    Time Temperature Precipitation Wind Pressure Humidity
    00:00 +9°C° 0 mm 3 mps 728 mmHg 47%
    01:00 +9°C° 0 mm 3 mps 728 mmHg 45%
    02:00 +8°C° 0 mm 3 mps 728 mmHg 45%
    03:00 +8°C° 0 mm 3 mps 728 mmHg 44%
    04:00 +8°C° 0 mm 3 mps 728 mmHg 44%
    05:00 +8°C° 0 mm 3 mps 728 mmHg 43%
    06:00 +8°C° 0 mm 3 mps 728 mmHg 42%
    07:00 +7°C° 0 mm 3 mps 729 mmHg 42%
    08:00 +8°C° 0 mm 4 mps 729 mmHg 37%
    09:00 +11°C° 0 mm 4 mps 729 mmHg 33%
    10:00 +12°C° 0 mm 4 mps 729 mmHg 29%
    11:00 +13°C° 0 mm 4 mps 729 mmHg 27%
    12:00 +14°C° 0 mm 4 mps 729 mmHg 26%
    13:00 +14°C° 0 mm 4 mps 728 mmHg 24%
    14:00 +14°C° 0 mm 4 mps 728 mmHg 26%
    15:00 +13°C° 0 mm 3 mps 728 mmHg 28%
    16:00 +12°C° 0 mm 3 mps 728 mmHg 29%
    17:00 +11°C° 0 mm 3 mps 729 mmHg 30%
    18:00 +11°C° 0 mm 3 mps 729 mmHg 30%
    19:00 +10°C° 0 mm 3 mps 729 mmHg 31%
    20:00 +10°C° 0 mm 3 mps 729 mmHg 31%
    21:00 +10°C° 0 mm 4 mps 729 mmHg 31%
    22:00 +8°C° 0 mm 4 mps 729 mmHg 30%
    23:00 +8°C° 0 mm 4 mps 729 mmHg 30%

    13 December, Thursday

    Time Temperature Precipitation Wind Pressure Humidity
    00:00 +8°C° 0 mm 4 mps 729 mmHg 31%
    01:00 +8°C° 0 mm 4 mps 729 mmHg 31%
    02:00 +7°C° 0 mm 4 mps 729 mmHg 31%
    03:00 +7°C° 0 mm 4 mps 729 mmHg 31%
    04:00 +7°C° 0 mm 4 mps 729 mmHg 31%
    05:00 +7°C° 0 mm 4 mps 729 mmHg 31%
    06:00 +7°C° 0 mm 4 mps 729 mmHg 30%
    07:00 +7°C° 0 mm 4 mps 729 mmHg 30%
    08:00 +8°C° 0 mm 4 mps 730 mmHg 27%
    09:00 +10°C° 0 mm 5 mps 730 mmHg 24%
    10:00 +13°C° 0 mm 5 mps 730 mmHg 21%
    11:00 +14°C° 0 mm 5 mps 730 mmHg 20%
    12:00 +14°C° 0 mm 5 mps 729 mmHg 19%
    13:00 +15°C° 0 mm 5 mps 729 mmHg 17%
    14:00 +14°C° 0 mm 5 mps 729 mmHg 19%
    15:00 +13°C° 0 mm 4 mps 729 mmHg 21%
    16:00 +13°C° 0 mm 4 mps 728 mmHg 22%
    17:00 +12°C° 0 mm 4 mps 729 mmHg 23%
    18:00 +11°C° 0 mm 4 mps 729 mmHg 23%
    19:00 +11°C° 0 mm 4 mps 729 mmHg 24%
    20:00 +9°C° 0 mm 5 mps 729 mmHg 24%
    21:00 +9°C° 0 mm 5 mps 729 mmHg 24%
    22:00 +9°C° 0 mm 5 mps 729 mmHg 23%
    23:00 +9°C° 0 mm 5 mps 729 mmHg 23%

    14 December, Friday

    Time Temperature Precipitation Wind Pressure Humidity
    00:00 +9°C° 0 mm 5 mps 728 mmHg 23%
    01:00 +8°C° 0 mm 5 mps 728 mmHg 23%
    02:00 +8°C° 0 mm 5 mps 728 mmHg 23%
    03:00 +8°C° 0 mm 4 mps 728 mmHg 23%
    04:00 +8°C° 0 mm 4 mps 728 mmHg 22%
    05:00 +8°C° 0 mm 4 mps 728 mmHg 22%
    06:00 +8°C° 0 mm 4 mps 728 mmHg 22%
    07:00 +8°C° 0 mm 4 mps 729 mmHg 22%
    08:00 +10°C° 0 mm 4 mps 729 mmHg 19%
    09:00 +12°C° 0 mm 4 mps 729 mmHg 17%
    10:00 +14°C° 0 mm 5 mps 729 mmHg 14%
    11:00 +15°C° 0 mm 5 mps 729 mmHg 13%
    12:00 +16°C° 0 mm 5 mps 729 mmHg 12%
    13:00 +17°C° 0 mm 5 mps 728 mmHg 11%
    14:00 +17°C° 0 mm 4 mps 728 mmHg 13%
    15:00 +16°C° 0 mm 3 mps 728 mmHg 15%
    16:00 +14°C° 0 mm 3 mps 728 mmHg 17%
    17:00 +14°C° 0 mm 2 mps 729 mmHg 18%
    18:00 +13°C° 0 mm 2 mps 729 mmHg 18%
    19:00 +13°C° 0 mm 2 mps 729 mmHg 18%
    20:00 +11°C° 0 mm 3 mps 729 mmHg 18%
    21:00 +11°C° 0 mm 3 mps 729 mmHg 18%
    22:00 +11°C° 0 mm 3 mps 729 mmHg 17%
    23:00 +11°C° 0 mm 3 mps 729 mmHg 17%

    15 December, Saturday

    Time Temperature Precipitation Wind Pressure Humidity
    00:00 +11°C° 0 mm 3 mps 729 mmHg 17%
    01:00 +10°C° 0 mm 3 mps 729 mmHg 17%
    02:00 +10°C° 0 mm 3 mps 729 mmHg 18%
    03:00 +10°C° 0 mm 3 mps 729 mmHg 18%
    04:00 +10°C° 0 mm 3 mps 729 mmHg 18%
    05:00 +9°C° 0 mm 2 mps 729 mmHg 18%
    06:00 +9°C° 0 mm 2 mps 730 mmHg 19%
    07:00 +9°C° 0 mm 2 mps 730 mmHg 19%
    08:00 +12°C° 0 mm 2 mps 730 mmHg 17%
    09:00 +14°C° 0 mm 2 mps 731 mmHg 15%
    10:00 +16°C° 0 mm 2 mps 731 mmHg 13%
    11:00 +16°C° 0 mm 2 mps 731 mmHg 13%
    12:00 +17°C° 0 mm 2 mps 731 mmHg 12%
    13:00 +18°C° 0 mm 2 mps 731 mmHg 11%
    14:00 +16°C° 0 mm 1 mps 731 mmHg 13%
    15:00 +15°C° 0 mm 1 mps 731 mmHg 16%
    16:00 +14°C° 0 mm 1 mps 731 mmHg 18%
    17:00 +13°C° 0 mm 1 mps 731 mmHg 19%
    18:00 +12°C° 0 mm 1 mps 732 mmHg 20%
    19:00 +11°C° 0 mm 1 mps 732 mmHg 21%
    20:00 +11°C° 0 mm 1 mps 732 mmHg 22%
    21:00 +10°C° 0 mm 1 mps 732 mmHg 23%
    22:00 +10°C° 0 mm 1 mps 732 mmHg 24%
    23:00 +9°C° 0 mm 1 mps 732 mmHg 25%
    Show more